DateTimeUTC,F1_A11,F1_S11,BsB_S11,BsG_S11,BsR_S11,BbsB_S11,BbsG_S11,BbsR_S11,BaB_A11,BaG_A11,BaR_A11,Tu_S11,T_S11,Uu_S11,U_S11,P_S11,T1_A11
2021-10-29T07:00:00Z,00000200,21000000,,,,,,,-000.72,-000.52,-000.44,18.6,25.5,,00.0,0645.3,31.1
2021-10-29T07:01:00Z,00000200,21000000,,,,,,,-000.26,0000.01,0000.16,18.6,25.5,,00.0,0645.3,31.1
2021-10-29T07:02:00Z,00000200,21000000,,,,,,,0000.12,-000.20,-000.04,18.6,25.6,,00.0,0645.3,31.1
2021-10-29T07:03:00Z,00000200,61000000,,,,,,,-000.50,-000.41,-000.57,18.6,25.6,,00.0,0645.3,31.1
2021-10-29T07:04:00Z,00000200,41000000,-000.10,-000.22,0000.49,0000.23,0000.19,-000.02,-000.10,-000.15,-000.19,18.9,25.5,,00.0,0646.2,31.1
2021-10-29T07:05:00Z,00000200,01000000,0000.35,-000.07,0000.02,0000.49,-000.21,0000.14,-000.36,-000.25,0000.20,18.9,25.4,,00.0,0646.3,31.1
2021-10-29T07:06:00Z,00000200,01000000,0000.95,-000.49,0000.26,-000.76,0000.29,0000.10,-000.43,-000.45,-000.62,18.9,25.4,,00.0,0646.4,31.1
2021-10-29T07:07:00Z,00000200,01000000,0000.27,-000.41,0000.15,-000.46,-000.05,0000.20,-000.19,-000.45,-000.13,18.8,25.4,,00.0,0646.3,31.1
2021-10-29T07:08:00Z,00000200,01000000,0000.63,-000.19,0000.12,0000.11,0000.20,0000.09,-000.15,0000.04,-000.37,18.7,25.3,,00.0,0646.3,31.0
2021-10-29T07:09:00Z,00000200,01000000,-000.13,0000.07,0000.28,0000.04,-000.19,0000.25,0000.01,0000.49,0000.20,18.6,25.2,,00.0,0646.3,31.0
2021-10-29T07:10:00Z,00000200,01000000,-000.02,-000.14,0000.06,0000.42,0000.02,0000.27,0000.60,-000.06,0000.55,18.5,25.2,,00.0,0646.3,31.0
2021-10-29T07:11:00Z,00000200,01000000,-000.23,-000.19,-000.09,0000.26,-000.13,-000.09,-000.10,-000.24,-000.70,18.4,25.2,,00.0,0646.3,31.0
2021-10-29T07:12:00Z,00000200,01000000,0000.10,-000.32,0000.29,0000.38,0000.19,0000.23,-000.24,0000.10,-000.21,18.4,25.1,,00.0,0646.3,31.0
2021-10-29T07:13:00Z,00000200,01000000,-000.32,-000.13,-000.35,-000.38,0000.03,0000.21,-000.48,-000.34,0000.17,18.4,25.1,,00.0,0646.3,31.0
2021-10-29T07:14:00Z,00000200,01000000,-000.14,-000.08,0000.44,0000.01,-000.06,0000.31,0000.21,-000.06,-000.20,18.5,25.1,,00.0,0646.3,31.1
2021-10-29T07:15:00Z,00000200,01000000,-000.04,-000.25,0000.04,0000.03,0000.17,0000.26,0000.42,0000.51,0000.63,18.5,25.1,,00.0,0646.2,31.0
2021-10-29T07:16:00Z,00000200,01000000,0000.55,-000.04,0000.19,-000.77,-000.11,0000.32,0000.77,0000.87,0000.56,18.6,25.1,,00.0,0646.2,31.1
2021-10-29T07:17:00Z,00000200,01000000,0000.50,-000.53,0000.02,-000.07,0000.38,0000.12,0000.85,0000.25,0000.36,18.6,25.1,,00.0,0646.2,31.1
2021-10-29T07:18:00Z,00000200,01000000,0000.54,-000.23,0000.36,0000.13,0000.20,0000.10,0000.24,0000.77,0000.59,18.7,25.2,,00.0,0646.2,31.1
2021-10-29T07:19:00Z,00000200,01000000,-000.48,-000.05,0000.18,0000.06,-000.17,0000.15,-000.04,-000.05,-000.01,18.7,25.2,,00.0,0646.2,31.1
2021-10-29T07:20:00Z,00000200,01000000,0000.56,0000.12,-000.16,-000.27,0000.00,-000.07,0000.40,0000.25,-000.07,18.8,25.2,,00.0,0646.2,31.1
2021-10-29T07:21:00Z,00000200,01000000,-000.29,0000.03,0000.14,-000.20,-000.11,-000.01,0000.48,0000.36,0000.86,18.8,25.3,,00.0,0646.2,31.1
2021-10-29T07:22:00Z,00000200,01000000,0000.01,-000.09,0000.12,0000.36,0000.22,0000.00,0000.57,0000.53,0000.30,18.8,25.3,,00.0,0646.2,31.1
2021-10-29T07:23:00Z,00000200,01000000,0000.70,-000.24,-000.03,0000.11,0000.06,-000.07,0000.82,0000.69,0000.20,18.9,25.3,,00.0,0646.2,31.1
2021-10-29T07:24:00Z,00000200,01000000,0000.83,-000.18,0000.36,0000.18,-000.23,0000.02,0000.59,0000.64,0000.83,19.0,25.3,,00.0,0646.1,31.1
2021-10-29T07:25:00Z,00000200,01000000,-000.59,-000.51,0000.16,-000.01,0000.05,-000.06,-000.41,-000.13,-000.27,18.9,25.3,,00.0,0646.1,31.1
2021-10-29T07:26:00Z,00000200,01000000,0000.28,-000.01,-000.14,0000.03,-000.01,-000.02,-000.65,-000.67,-000.80,18.9,25.3,,00.0,0646.2,31.1
2021-10-29T07:27:00Z,00000200,01000000,0000.58,-000.36,0000.41,-000.55,-000.09,-000.08,0000.15,0000.33,0000.16,18.9,25.3,,00.0,0646.1,31.1
2021-10-29T07:28:00Z,00000200,01000000,0000.47,-000.28,0000.23,-000.48,-000.00,-000.18,0000.67,0000.37,0000.38,18.9,25.3,,00.0,0646.1,31.1
2021-10-29T07:29:00Z,00000200,01000000,0000.77,-000.31,0000.02,0000.07,0000.18,0000.02,0000.14,0000.19,0000.32,18.9,25.3,,00.0,0646.1,31.1
2021-10-29T07:30:00Z,00000200,01000000,0000.34,-000.04,-000.13,-000.21,0000.32,0000.28,-000.12,-000.26,-000.05,19.0,25.3,,00.0,0646.1,31.1
2021-10-29T07:31:00Z,00000200,01000000,0000.19,0000.04,-000.01,0000.20,0000.01,0000.65,-000.10,-000.33,-000.13,19.0,25.3,,00.0,0646.1,31.1
2021-10-29T07:32:00Z,00000200,01000000,0000.42,-000.02,-000.37,-000.13,-000.05,-000.03,-000.36,-000.16,-000.12,19.1,25.4,,00.0,0646.1,31.1
2021-10-29T07:33:00Z,00000200,01000000,0000.92,0000.02,0000.07,0000.02,0000.01,-000.08,-000.69,-000.56,-000.56,19.1,25.4,,00.0,0646.1,31.1
2021-10-29T07:34:00Z,00000200,01000000,0000.17,0000.11,0000.18,0000.36,0000.09,0000.03,-000.46,-000.04,-000.05,19.2,25.4,,00.0,0646.2,31.1
2021-10-29T07:35:00Z,00000200,01000000,0000.36,-000.21,0000.38,-000.63,-000.07,0000.52,-000.19,-000.25,-000.37,19.2,25.4,,00.0,0646.1,31.2
2021-10-29T07:36:00Z,00000200,01000000,0000.20,0000.15,0000.03,-000.25,-000.11,-000.07,-000.09,-000.25,0000.21,19.2,25.5,,00.0,0646.1,31.2
2021-10-29T07:37:00Z,00000200,01000000,0000.09,-000.11,-000.05,-000.43,0000.24,0000.08,-000.35,-000.50,-000.72,19.2,25.5,,00.0,0646.1,31.1
2021-10-29T07:38:00Z,00000200,01000000,-000.39,-000.21,-000.00,-000.66,-000.09,0000.21,0000.03,0000.16,0000.42,19.1,25.4,,00.0,0646.1,31.1
2021-10-29T07:39:00Z,00000200,01000000,-000.23,-000.61,0000.24,-000.07,-000.02,0000.35,0000.16,0000.17,-000.36,19.0,25.4,,00.0,0646.1,31.1
2021-10-29T07:40:00Z,00000200,01000000,-000.14,-000.09,0000.21,-000.30,-000.04,0000.24,-000.10,-000.34,-000.14,18.9,25.4,,00.0,0646.1,31.1
2021-10-29T07:41:00Z,00000200,01000000,0000.39,-000.07,0000.27,-000.43,0000.28,0000.26,0000.38,0000.36,0000.54,18.8,25.3,,00.0,0646.1,31.0
2021-10-29T07:42:00Z,00000200,01000000,-000.05,0000.18,0000.08,0000.01,-000.19,0000.13,0000.08,0000.36,-000.13,18.8,25.2,,00.0,0646.2,31.1
2021-10-29T07:43:00Z,00000200,01000000,0000.48,0000.16,0000.46,-000.50,0000.21,0000.09,0000.21,0000.02,0000.22,18.8,25.3,,00.0,0646.2,31.1
2021-10-29T07:44:00Z,00000200,01000000,0000.43,0000.08,0000.06,-000.33,0000.09,0000.12,-000.29,-000.25,-000.13,18.8,25.3,,00.0,0646.2,31.1
2021-10-29T07:45:00Z,00000200,01000000,0000.27,0000.03,0000.03,-000.32,0000.23,-000.25,0000.31,0000.22,-000.18,18.8,25.3,,00.0,0646.3,31.1
2021-10-29T07:46:00Z,00000200,01000000,-000.08,0000.25,0000.09,-000.30,0000.19,0000.21,0000.45,0000.37,0000.45,18.9,25.3,,00.0,0646.3,31.1
2021-10-29T07:47:00Z,00000200,01000000,0000.24,-000.21,0000.09,-000.33,-000.07,0000.27,0000.59,0000.35,0000.59,18.9,25.3,,00.0,0646.3,31.1
2021-10-29T07:48:00Z,00000200,01000000,0000.19,0000.20,0000.23,-000.07,0000.08,0000.11,-000.36,0000.10,0000.11,19.0,25.3,,00.0,0646.3,31.1
2021-10-29T07:49:00Z,00000200,01000000,0000.79,0000.07,0000.15,0000.56,0000.11,0000.20,0000.09,0000.05,-000.21,19.0,25.4,,00.0,0646.3,31.1
2021-10-29T07:50:00Z,00000200,01000000,0000.39,-000.23,-000.08,-000.21,0000.02,0000.06,-000.25,0000.11,-000.22,19.1,25.4,,00.0,0646.3,31.1
2021-10-29T07:51:00Z,00000200,01000000,0000.95,-000.28,0000.04,0000.54,-000.12,0000.07,0000.43,0000.30,0000.67,19.1,25.4,,00.0,0646.3,31.1
2021-10-29T07:52:00Z,00000200,01000000,0001.03,0000.14,0000.06,-000.50,0000.04,0000.43,-000.09,0000.09,-000.43,19.2,25.5,,00.0,0646.3,31.1
2021-10-29T07:53:00Z,00000200,01000000,0000.09,-000.04,-000.00,-000.38,0000.04,0000.25,-000.01,-000.21,0000.19,19.2,25.5,,00.0,0646.3,31.1
2021-10-29T07:54:00Z,00000200,01000000,0000.69,0000.07,-000.20,-000.04,-000.09,0000.08,-000.51,-000.55,-000.67,19.2,25.5,,00.0,0646.3,31.1
2021-10-29T07:55:00Z,00000200,01000000,-000.81,-000.10,0000.09,-000.43,-000.11,0000.18,0000.30,-000.12,0000.20,19.1,25.5,,00.0,0646.3,31.1
2021-10-29T07:56:00Z,00000200,01000000,0000.13,-000.12,-000.01,-000.35,0000.03,0000.08,-000.61,0000.09,-000.04,19.0,25.5,,00.0,0646.3,31.1
2021-10-29T07:57:00Z,00000200,41000000,,,,,,,0000.67,0000.13,0000.04,19.1,25.5,,00.0,0646.3,31.1
2021-10-29T07:58:00Z,00000200,61000000,,,,,,,-000.33,-000.45,-000.02,18.8,25.5,,00.0,0645.4,31.1
2021-10-29T07:59:00Z,00000200,21000000,,,,,,,-000.06,0000.26,0000.07,18.8,25.6,,00.0,0645.3,31.1
